Starlink 3176

operational
NORAD ID: 51106 Int'l Des: 2022-005 Owner: SPXS Country: US Constellation: starlink
LEOCIRCULAR

Über Starlink 3176

Beschreibung wird geladen...

Live-Position

3D-Globus wird geladen...

Nächste Überflüge

Höhenverlauf

Altitude vs Time

uPlot chart will show altitude changes over time

Zweizeiliger Elementsatz

1 51106U 22005C 26036.10157306 .00001168 00000-0 91464-4 0 9996
2 51106 53.2168 75.4168 0001410 87.5050 272.6103 15.08832425223952
Epoch: 5. Feb. 2026 • Age: 15 hours

Aktueller Status

Höhe 542.8 km
Geschwindigkeit 7.60 km/s
Subsatellitenpunkt 41.11°N, 82.48°E
Startdatum 19. Jan. 2022
Alter 4 years
Typ internet

Technische Details

Klassifizierung Payload
Masse 297.00 kg
Trockenmasse 275.00 kg
Gesamtmasse 297.00 kg
Länge 0.20 m
Durchmesser 2.80 m
Spannweite 9.00 m
Form Box + pan
Hersteller SPXS
Bus-Typ Starlink
Phasenstatus In Orbit
Besitzer/Staat SPXS/US

Große Konstellationen

Loading constellations...